Location: *
(45.0500°N, 12.0500°E)
Time: 18:55:25
(UTC+00:00)

Meteor 1-16 Rocket - Pass Details

Date: 09 April 2020
Orbit: 791 x 907 km, 81.2° (Epoch: 25 May)

Event Time Altitude Azimuth Distance (km) Brightness Sun altitude
Rises 18:30:00 0° 188° (S) 3,307 7.2 -7.6°
Reaches altitude 10° 18:32:21 10° 188° (S) 2,393 6.4 -8.0°
Maximum altitude 18:37:46 88° 99° (E) 836 4.2 -8.9°
Drops below altitude 10° 18:43:24 10° 11° (N) 2,485 6.8 -9.8°
Sets 18:45:52 0° 11° (NNE) 3,443 7.5 -10.2°
